User: anonymous   Login
Location: Ústí nad Labem
(50.6611°N, 14.0531°E)
Time: 12:13:36
(UTC+02:00)
Language:

Vanguard 2 Rocket - Orbit

View from above orbital plane
View from above orbital plane
View from above satellite
View from above satellite

Ground track
Ground track

The orbit data is extracted from the following two-line orbital elements,

1 00012U 59001B   24107.36536089  .00002775  00000-0  16292-2 0  9995
2 00012  32.9066 131.7219 1655877 237.9001 105.0223 11.46139462440330
Epoch (UTC): 16 April 2024 08:46:07
Eccentricity: 0.1655877
inclination: 32.9066°
perigee height: 555 km
apogee height: 3307 km
right ascension of ascending node: 131.7219°
argument of perigee: 237.9001°
revolutions per day: 11.46139462
mean anomaly at epoch: 105.0223°
orbit number at epoch: 44033

The dashed part of the orbit path shows where the satellite is in the earth's shadow,  

DLR